Regional Weather Roundup
Issued by NWS Portland, ME

Home | Current Version | Previous Version | Text Only | Print | Product List | Glossary On
Versions: 1 2 3 4 5 6 7 8 9 10 11 12 13 14 15 16 17 18 19 20 21 22 23 24 25 26 27 28 29 30 31 32 33 34 35 36 37 38 39 40 41 42 43 44 45 46 47 48 49 50
000
ASUS41 KGYX 270710
RWRGYX
WEATHER ROUNDUP FOR MAINE AND NEW HAMPSHIRE
NATIONAL WEATHER SERVICE GRAY ME
200 AM EST FRI FEB 27 2015

MEZ002-005-006-010-012-015-018-020-021-024-026-027-029-270800-
MAINE

CITY           SKY/WX    TMP DP  RH WIND       PRES   REMARKS
PORTLAND       MOCLDY    15  -3  44 N5        30.16R
SANFORD        MOCLDY     9  -2  61 CALM      30.13R
BAR HARBOR     CLOUDY    10  -2  56 NW7       30.13R
WISCASSET      CLOUDY    12  -6  44 CALM      30.17R
ROCKLAND       PTCLDY    12  -8  40 N3        30.14R
FRYEBURG       CLOUDY     8  -5  55 CALM      30.12R
LEWISTONAUBURN CLOUDY    12  -8  40 N7        30.13R
AUGUSTA        CLOUDY    10  -7  46 N9        30.13R
WATERVILLE     PTCLDY     9  -9  43 N9        30.11R
BANGOR         MOCLDY     6  -8  52 NW7       30.14R
GREENVILLE       N/A     -1 -12  59 NW8       29.99R
MILLINOCKET    MOCLDY     5 -10  50 W7        30.12R
HOULTON        MOCLDY     2  -9  60 NW3       30.07R
PRESQUE ISLE   PTCLDY     0 -15  50 NW5       30.08R
FRENCHVILLE    CLEAR     -4 -14  62 NW7       30.01R
CARIBOU        PTCLDY    -3 -11  68 NW3       30.06R
$$

NHZ002-005-008-009-011-012-014-270800-
NEW HAMPSHIRE

CITY           SKY/WX    TMP DP  RH WIND       PRES   REMARKS
PORTSMOUTH     MOCLDY    15  -1  49 W6        30.13R
ROCHESTER      CLOUDY    13   0  56 CALM      30.12R
NASHUA         MOCLDY    16  -3  42 CALM      30.16R
MANCHESTER     CLOUDY    15  -2  46 NW8       30.14R
CONCORD        CLOUDY    13  -5  44 W8        30.14R
LACONIA        CLOUDY    12  -8  40 W7        30.09R
PLYMOUTH       CLOUDY    10  -4  54 W7        30.13R
BERLIN         CLOUDY    -4 -14  62 N5        30.09R
WHITEFIELD     MOCLDY    -4 -10  75 CALM      30.11R
JAFFREY        CLOUDY    11  -4  51 VRB3      30.08S
KEENE          MOCLDY    12  -4  48 NW5       30.14S
LEBANON        MOCLDY     8 -10  43 N5        30.15R
MT WASHINGTON  CLOUDY    -6 -15  65 NW28        N/A  WCI -33
$$

VTZ005-007-008-270800-
VERMONT

CITY           SKY/WX    TMP DP  RH WIND       PRES   REMARKS
ST JOHNSBURY     N/A     -1  -8  72 MISG      30.15R
MONTPELIER     PTCLDY     1 -12  54 N7        30.15R
BURLINGTON     PTCLDY     1  -9  62 CALM      30.22R
$$

MAZ007-012-024-CTZ003-RIZ002-NYZ038-NYZ072-270800-
SOUTHERN NEW ENGLAND AND NY

CITY           SKY/WX    TMP DP  RH WIND       PRES   REMARKS
BOSTON         PTCLDY    18   0  45 NW7       30.16R
WORCESTER      MOCLDY    13  -4  46 NW9       30.08R
NANTUCKET      PTCLDY    24  14  65 N10       30.11R WCI  14
PROVIDENCE     CLEAR     12   8  84 CALM      30.15R
HARTFORD       PTCLDY    15  -1  49 NW3       30.16R
ALBANY         CLOUDY     9  -5  53 N7        30.23R
NEW YORK CITY  MOCLDY    22   8  55 N6        30.19R
$$

ANZ081-ANZ082-ANZ150-NHZ014-MEZ023>029-270800-
COASTAL MARINE OBSERVATIONS

STATION/POSITION TIME  TEMP    WIND        PRES    WAVE
                       AIR SEA DIR/SP/G            HT/PER
                 (UTC) (F)     (DEG/KT/KT) (MB)    (FT/S)
MOUNT DESERT ROC 0700   18                 1019.2R
MATINICUS ROCK   0700   16     360/ 13/ 16 1020.1R
WELLS            0618   17     350/  5/  6 1020.1R
ISLE OF SHOALS   0700   19     310/ 12/ 14 1019.9R
JEFFREYS LEDGE   0621      40                N/A     4/11
CASHES LEDGE BUO 0650   22 40              1019.2R   4/11
$$

.............KEY..............
   WCI - WIND CHILL
   TC  - TEMPERATURE IN CELSIUS
   VSB - VISIBILITY IN MILES
   HX  - HEAT INDEX
   FAIR- INDICATES FEW OR NO CLOUDS BELOW 12,000 FT, WITH NO
         SIGNIFICANT WEATHER AND/OR OBSTRUCTIONS TO VISIBILITY.




USA.gov is the U.S. government's official web portal to all federal, state and local government web resources and services.